Temp
74 77 82 83 84 84 83 83 83 83 83 83 83 83 83 83 83 83 83 83 84 84 84 84 84 84 84 84 84 84 83 83 83 83 83 83 83 83 83 83 83 82 82
75 78 82 83 83 83 83 83 83 83 83 83 83 83 83 83 83 83 83 83 83 84 84 84 84 83 83 83 83 83 83 83 84 84 84 84 83 83 83 83 82 81 82
76 79 82 82 83 83 83 83 83 83 83 83 83 83 83 83 84 83 83 84 84 84 84 84 84 83 83 83 83 83 82 83 82 83 84 79 79 83 83 83 82 82 82
77 77 79 82 83 83 83 83 83 83 83 83 83 83 83 83 83 84 83 84 84 84 84 84 84 84 83 83 83 83 82 83 83 82 79 80 82 83 83 83 82 82 81
76 77 79 82 83 83 83 83 83 83 83 83 83 83 83 83 83 84 84 84 84 84 84 84 84 83 83 83 83 83 83 83 83 83 79 78 76 83 83 82 82 82 82
76 77 81 83 83 83 83 83 83 83 83 83 83 83 84 84 84 84 84 84 84 84 84 84 84 83 83 83 83 83 82 83 84 79 78 77 77 82 83 83 82 82 82
76 77 80 83 83 83 83 83 83 83 83 83 83 83 83 83 83 83 84 83 83 83 83 83 83 83 83 83 83 83 83 84 82 81 76 78 79 81 83 83 83 82 81
78 77 80 83 83 83 83 83 83 83 83 83 83 83 83 83 83 83 83 83 83 83 83 83 83 83 83 83 83 83 83 83 84 79 78 77 79 81 83 83 82 82 82
79 78 77 79 82 84 83 83 83 83 84 83 83 83 83 83 83 83 83 83 83 83 83 83 83 83 83 83 83 83 83 84 79 77 80 76 80 82 83 83 82 82 82
78 78 76 76 77 77 79 83 83 83 84 84 83 83 83 84 84 84 82 82 83 84 84 84 84 84 83 83 83 83 84 84 76 76 75 74 80 81 82 83 82 81 81
77 77 76 75 75 76 77 81 82 84 84 84 84 85 82 78 78 80 82 82 84 84 84 84 84 83 83 83 83 83 84 78 76 76 73 77 79 82 81 81 81 81 81
74 75 76 75 75 75 82 77 76 79 78 77 76 76 76 76 76 81 81 83 85 85 85 84 83 83 82 76 76 80 76 78 76 76 73 77 77 81 81 82 81 81 81
77 78 77 77 76 76 78 74 74 75 74 74 76 75 75 77 75 76 73 74 77 81 79 81 80 78 77 77 75 75 77 77 78 76 79 79 79 81 78 82 82 82 81
77 79 79 79 78 76 75 74 75 76 74 74 76 77 75 75 74 74 73 74 74 76 76 76 76 77 76 77 77 78 78 77 76 77 76 81 80 81 82 83 82 82 82
78 80 79 79 78 78 75 75 76 77 77 77 77 77 77 76 75 74 74 77 77 76 76 76 76 76 77 78 78 78 78 78 79 78 75 83 81 81 83 84 83 83 82
81 79 81 79 80 76 77 76 77 78 79 78 77 77 78 77 76 76 78 77 77 76 76 75 76 76 76 77 78 79 79 79 79 78 76 77 82 81 82 83 83 83 82
80 80 81 79 79 78 77 78 77 77 79 77 77 78 79 78 77 77 77 78 77 76 77 76 77 76 74 76 76 77 76 77 78 78 78 76 76 82 81 82 83 82 82
80 79 81 85 79 77 77 77 78 78 77 77 76 77 79 80 78 77 77 77 76 77 76 76 74 74 74 72 72 73 73 75 77 78 79 79 78 79 80 82 81 81 82
81 80 80 80 78 77 76 76 77 77 76 77 76 77 79 81 80 78 77 78 76 76 74 76 74 74 72 72 74 74 73 72 74 80 77 77 77 76 77 82 82 81 82
82 81 81 80 79 76 75 74 74 74 75 76 76 78 79 83 80 77 77 78 77 75 74 75 74 74 72 70 76 75 72 73 73 72 74 78 77 77 76 76 75 77 82
81 80 79 78 77 76 72 71 70 71 73 74 75 78 79 79 80 78 76 77 77 75 75 75 74 73 72 70 69 70 71 72 72 74 72 73 74 75 75 75 74 73 74
81 80 79 78 76 77 78 76 74 72 74 76 76 77 78 80 79 79 77 76 77 76 75 74 73 70 70 69 67 64 64 68 70 74 71 73 71 72 73 75 72 72 71
81 80 79 79 77 78 78 75 73 73 73 73 74 75 78 79 80 79 78 77 75 74 74 73 73 71 68 68 69 67 61 60 63 67 70 68 69 69 69 69 71 71 70
82 83 82 80 78 79 76 77 76 74 73 75 74 76 77 79 79 79 78 77 76 74 74 73 73 70 68 66 66 70 67 66 61 60 64 65 66 69 67 67 68 69 69
84 83 83 80 78 79 78 79 77 76 75 73 74 75 76 76 80 81 79 77 76 74 74 74 71 72 70 67 65 65 66 64 62 58 57 61 63 64 65 66 66 67 68
84 83 83 80 79 79 79 78 77 77 74 74 76 73 73 75 79 78 79 77 76 75 74 72 71 71 69 69 67 66 65 65 61 58 56 56 58 62 68 64 64 65 66
MSLP
1016.07 1015.60 1015.50 1015.40 1015.42 1015.41 1015.39 1015.50 1015.63 1015.65 1015.62 1015.73 1015.84 1015.97 1015.92 1015.90 1016.06 1016.19 1016.19 1016.41 1016.45 1016.51 1016.58 1016.64 1016.73 1016.91 1017.04 1017.05 1017.29 1017.38 1017.39 1017.50 1017.38 1017.33 1017.36 1017.46 1017.56 1017.65 1017.69 1017.71 1017.86 1017.93 1017.90
1015.68 1015.65 1015.63 1015.59 1015.69 1015.74 1015.61 1015.70 1015.75 1015.83 1015.84 1015.93 1015.94 1016.06 1016.09 1016.17 1016.36 1016.49 1016.43 1016.65 1016.75 1016.83 1016.87 1016.91 1016.99 1017.16 1017.36 1017.54 1017.77 1017.74 1017.74 1017.59 1017.43 1017.55 1017.65 1017.65 1017.56 1017.57 1017.64 1017.82 1017.99 1018.11 1018.14
1015.79 1015.75 1015.80 1015.87 1015.88 1016.03 1016.03 1016.06 1016.11 1016.11 1016.19 1016.26 1016.37 1016.41 1016.44 1016.60 1016.67 1016.72 1016.69 1016.83 1016.91 1017.03 1017.15 1017.15 1017.19 1017.36 1017.51 1017.74 1018.04 1018.04 1018.11 1017.87 1017.94 1017.91 1018.07 1018.19 1018.02 1017.78 1017.69 1017.78 1018.04 1018.20 1018.33
1015.79 1015.86 1016.10 1016.04 1016.17 1016.30 1016.31 1016.35 1016.39 1016.46 1016.41 1016.57 1016.64 1016.73 1016.80 1016.88 1016.92 1016.99 1017.08 1017.14 1017.19 1017.25 1017.36 1017.35 1017.37 1017.48 1017.55 1017.80 1018.10 1018.29 1018.41 1018.13 1018.17 1018.23 1018.29 1018.32 1017.97 1017.97 1017.96 1017.95 1018.05 1018.20 1018.33
1015.95 1016.07 1016.18 1016.23 1016.35 1016.46 1016.54 1016.64 1016.70 1016.69 1016.73 1016.81 1016.87 1016.95 1017.09 1017.17 1017.23 1017.31 1017.34 1017.36 1017.40 1017.43 1017.47 1017.54 1017.57 1017.59 1017.66 1017.81 1018.04 1018.30 1018.29 1018.22 1018.05 1018.05 1018.19 1018.26 1018.26 1017.97 1017.94 1018.08 1018.11 1018.19 1018.33
1016.05 1016.19 1016.23 1016.41 1016.55 1016.64 1016.74 1016.87 1016.86 1016.87 1016.94 1017.03 1017.15 1017.27 1017.35 1017.43 1017.50 1017.53 1017.53 1017.53 1017.62 1017.69 1017.71 1017.75 1017.77 1017.75 1017.79 1017.95 1018.05 1018.11 1018.23 1018.27 1018.24 1018.20 1018.13 1018.03 1018.19 1018.21 1018.07 1017.87 1017.95 1018.09 1018.18
1016.25 1016.19 1016.29 1016.51 1016.60 1016.82 1016.91 1016.99 1017.04 1017.05 1017.15 1017.31 1017.47 1017.49 1017.50 1017.64 1017.66 1017.69 1017.68 1017.75 1017.84 1017.90 1017.97 1018.00 1017.97 1017.94 1017.89 1017.92 1017.90 1017.75 1018.01 1018.21 1018.07 1017.93 1017.99 1017.65 1017.96 1018.18 1018.07 1017.97 1017.90 1017.81 1018.03
1016.11 1016.23 1016.40 1016.57 1016.75 1016.88 1017.05 1017.02 1017.14 1017.30 1017.43 1017.57 1017.67 1017.65 1017.72 1017.75 1017.78 1017.79 1017.80 1017.91 1017.93 1017.98 1017.97 1017.97 1017.95 1017.88 1017.72 1017.69 1017.61 1017.48 1017.75 1017.60 1017.66 1017.53 1017.17 1017.37 1017.61 1018.02 1018.07 1017.79 1017.94 1017.89 1017.75
1016.05 1016.35 1016.60 1016.73 1016.90 1017.05 1017.11 1017.16 1017.32 1017.47 1017.63 1017.80 1017.88 1017.86 1017.83 1017.78 1017.81 1017.83 1017.95 1017.97 1018.05 1018.05 1018.02 1017.98 1017.88 1017.77 1017.63 1017.51 1017.39 1017.34 1017.52 1017.47 1017.37 1017.28 1016.78 1016.66 1016.93 1017.37 1017.66 1017.63 1017.70 1017.93 1017.77
1016.37 1016.49 1016.78 1016.99 1017.15 1017.29 1017.23 1017.29 1017.46 1017.63 1017.75 1017.85 1017.92 1017.91 1018.01 1017.99 1017.93 1017.91 1017.96 1017.99 1017.97 1018.11 1018.06 1017.79 1017.66 1017.60 1017.50 1017.31 1017.20 1017.08 1017.15 1017.31 1017.20 1017.28 1016.92 1016.77 1016.39 1016.51 1017.04 1017.12 1017.36 1017.63 1017.74
1016.71 1016.84 1016.97 1017.17 1017.34 1017.37 1017.37 1017.41 1017.60 1017.65 1017.69 1017.81 1017.85 1017.88 1017.92 1017.93 1017.86 1017.83 1017.85 1018.01 1018.05 1018.10 1017.83 1017.56 1017.47 1017.36 1017.37 1017.12 1016.90 1016.83 1016.73 1016.84 1017.04 1017.18 1016.75 1016.55 1016.21 1017.08 1017.37 1016.62 1017.00 1017.25 1017.46
1016.72 1016.88 1016.97 1017.10 1017.35 1017.35 1017.21 1017.39 1017.67 1017.69 1017.70 1017.75 1017.81 1017.94 1017.94 1017.88 1017.96 1017.90 1018.05 1018.11 1018.03 1017.84 1017.61 1017.41 1017.27 1017.28 1017.26 1017.04 1016.87 1016.68 1016.84 1016.68 1016.56 1016.60 1016.92 1016.59 1016.98 1017.51 1017.21 1017.35 1016.56 1016.91 1017.12
1016.19 1016.63 1016.87 1016.89 1017.10 1017.18 1017.08 1017.32 1017.57 1017.69 1017.78 1017.91 1017.92 1018.00 1017.82 1017.80 1017.79 1017.90 1018.13 1018.19 1017.91 1017.60 1017.49 1017.44 1017.22 1017.22 1017.26 1017.16 1016.83 1016.62 1016.45 1016.24 1016.36 1016.22 1015.92 1015.80 1016.43 1017.10 1017.06 1016.52 1016.23 1016.42 1016.46
1016.10 1016.24 1016.41 1016.50 1016.80 1016.93 1017.00 1017.29 1017.37 1017.66 1017.84 1017.90 1017.92 1017.76 1017.72 1017.69 1017.71 1018.01 1018.25 1018.04 1017.56 1017.44 1017.33 1017.35 1017.29 1017.08 1017.13 1017.04 1016.71 1016.33 1016.13 1016.11 1016.17 1016.11 1015.99 1015.88 1015.75 1015.93 1015.84 1015.89 1015.97 1015.99 1016.21
1015.68 1015.80 1016.05 1016.27 1016.59 1016.59 1017.05 1017.29 1017.21 1017.27 1017.40 1017.55 1017.68 1017.58 1017.42 1017.46 1017.51 1017.93 1018.09 1017.46 1017.10 1017.03 1017.10 1017.21 1017.15 1017.06 1016.93 1016.70 1016.41 1016.25 1016.08 1015.89 1015.65 1015.57 1015.55 1015.25 1015.15 1015.37 1015.32 1015.53 1015.58 1015.66 1015.69
1015.11 1015.39 1015.67 1015.99 1016.07 1016.40 1016.70 1016.93 1016.91 1016.83 1016.88 1017.27 1017.36 1017.31 1017.23 1017.21 1017.38 1017.59 1017.36 1017.22 1016.94 1016.99 1017.09 1017.43 1017.21 1016.98 1016.91 1016.62 1016.46 1016.10 1015.98 1015.79 1015.55 1015.46 1015.31 1015.09 1015.08 1015.03 1014.97 1015.09 1015.26 1015.25 1015.23
1014.51 1014.91 1015.36 1015.69 1015.85 1016.21 1016.66 1016.55 1016.77 1016.59 1016.69 1016.98 1017.14 1017.00 1016.93 1016.85 1017.10 1017.18 1017.12 1016.91 1016.96 1017.18 1017.21 1017.12 1016.98 1016.99 1016.99 1016.64 1016.60 1016.38 1016.21 1015.80 1015.52 1015.33 1015.15 1015.10 1015.11 1014.93 1014.93 1014.79 1014.92 1014.96 1014.97
1013.98 1014.58 1014.95 1015.38 1015.69 1015.84 1016.16 1016.26 1016.45 1016.56 1016.77 1016.86 1017.12 1017.04 1016.91 1016.62 1016.80 1017.01 1017.10 1017.02 1016.96 1017.01 1016.97 1016.92 1017.23 1017.10 1017.01 1016.95 1016.79 1016.51 1016.33 1015.94 1015.60 1015.30 1015.20 1015.03 1014.92 1014.86 1014.67 1014.45 1014.50 1014.50 1014.60
1013.16 1013.95 1014.47 1014.88 1015.20 1015.46 1015.73 1015.97 1016.21 1016.29 1016.53 1016.51 1016.79 1016.79 1016.73 1016.53 1016.59 1016.82 1016.99 1016.81 1016.82 1016.99 1017.04 1017.13 1017.38 1017.13 1017.33 1017.31 1016.94 1016.60 1016.33 1016.17 1015.95 1015.43 1015.43 1015.08 1014.93 1014.85 1014.73 1014.51 1014.43 1014.41 1014.47
1012.66 1013.33 1013.80 1014.36 1014.76 1015.10 1015.59 1015.97 1016.25 1016.43 1016.39 1016.32 1016.46 1016.43 1016.30 1016.23 1016.39 1016.67 1016.91 1016.74 1016.96 1017.36 1017.14 1017.16 1017.16 1017.12 1017.33 1017.46 1017.16 1016.74 1016.59 1016.38 1016.27 1015.93 1015.97 1015.57 1015.41 1015.35 1015.13 1015.10 1014.79 1014.47 1014.27
1012.24 1012.93 1013.41 1014.06 1014.48 1014.98 1015.57 1016.12 1016.41 1016.49 1016.36 1016.23 1016.03 1015.93 1015.94 1016.09 1016.09 1016.24 1016.57 1016.69 1016.63 1017.01 1017.05 1017.04 1017.14 1017.13 1017.26 1017.35 1017.45 1017.21 1016.84 1016.61 1016.53 1016.33 1016.25 1016.19 1015.99 1015.53 1015.26 1015.22 1015.07 1014.91 1014.76
1011.70 1012.38 1012.98 1013.44 1014.03 1014.56 1015.02 1015.47 1015.77 1015.99 1016.00 1015.74 1015.53 1015.62 1015.63 1015.75 1015.89 1016.00 1016.11 1016.33 1016.29 1016.50 1016.88 1017.07 1017.05 1017.39 1017.69 1017.75 1018.03 1018.29 1017.86 1017.17 1016.65 1016.29 1016.51 1016.66 1016.51 1015.97 1015.57 1015.33 1015.15 1014.76 1014.47
1011.06 1011.58 1012.16 1012.73 1013.43 1014.05 1014.54 1015.05 1015.49 1015.72 1015.82 1015.71 1015.45 1015.45 1015.38 1015.26 1015.26 1015.52 1015.42 1015.57 1015.86 1016.19 1016.54 1016.89 1017.22 1017.54 1018.07 1018.05 1017.96 1018.32 1018.62 1018.55 1017.80 1017.03 1016.73 1016.86 1016.49 1016.20 1015.84 1015.44 1015.02 1014.84 1014.53
1010.01 1010.69 1011.27 1012.08 1012.79 1013.41 1014.00 1014.50 1014.82 1015.05 1015.38 1015.17 1014.98 1014.89 1014.77 1014.54 1014.80 1014.94 1014.96 1015.04 1015.44 1015.94 1016.51 1016.90 1017.14 1017.37 1017.72 1018.05 1018.05 1017.93 1018.09 1018.37 1018.51 1018.25 1017.38 1017.10 1016.96 1016.84 1016.67 1016.01 1015.53 1014.97 1014.69
1009.21 1009.93 1010.52 1011.30 1012.05 1012.59 1013.20 1013.55 1014.05 1014.49 1014.50 1014.65 1014.75 1014.73 1014.51 1014.41 1014.15 1014.23 1014.32 1014.62 1015.20 1015.68 1016.17 1016.32 1016.54 1016.56 1016.89 1017.45 1017.78 1017.89 1017.92 1018.05 1018.25 1018.51 1018.46 1017.67 1017.14 1016.76 1016.65 1016.36 1015.81 1015.21 1014.84
1008.59 1009.26 1009.92 1010.65 1011.21 1011.78 1012.29 1012.77 1013.19 1013.60 1013.91 1014.39 1014.47 1014.57 1014.38 1014.19 1014.20 1014.11 1014.04 1014.16 1014.52 1015.17 1015.49 1015.72 1015.91 1016.14 1016.54 1016.72 1016.88 1017.35 1017.65 1017.95 1018.15 1018.34 1018.59 1018.54 1018.15 1016.99 1016.22 1016.04 1015.90 1015.40 1014.81
Wind_Speed
3 5 9 12 14 14 15 15 14 14 16 16 15 16 16 16 16 15 15 13 13 13 12 11 12 11 11 11 11 11 12 10 12 12 13 12 11 10 9 10 10 8 11
5 5 10 12 14 13 14 13 13 12 14 14 14 14 15 14 14 14 14 12 12 13 12 10 10 9 9 10 10 10 10 9 9 10 10 10 11 9 12 11 10 8 10
5 5 9 11 12 13 13 13 12 12 12 13 13 13 14 13 14 13 12 12 13 12 10 9 9 7 7 9 8 7 6 3 4 6 7 1 1 9 11 13 11 10 8
7 6 6 11 11 13 13 12 12 12 13 13 12 13 12 12 12 13 11 11 10 11 9 9 8 6 7 7 7 6 5 2 2 1 2 3 4 7 9 11 11 10 9
6 6 7 12 12 12 12 12 12 12 12 13 13 12 11 11 12 11 10 9 9 10 9 8 6 4 3 4 3 2 3 4 5 5 5 6 4 8 11 11 10 10 10
8 7 10 12 12 11 11 12 11 11 12 11 11 11 12 11 11 10 10 10 9 9 8 6 4 2 1 2 4 5 3 5 6 5 5 6 5 9 13 14 13 12 10
8 7 7 11 11 11 12 12 11 11 11 11 11 11 11 11 10 10 9 8 7 7 5 3 2 2 4 5 6 7 6 5 4 2 2 4 5 11 14 13 13 13 13
11 7 6 12 12 11 10 10 11 10 10 11 10 9 9 9 8 8 8 7 7 6 5 3 3 5 6 7 8 8 7 7 5 4 2 5 8 12 14 13 13 13 14
10 7 5 6 9 12 11 10 11 10 10 9 8 7 8 8 8 7 6 6 6 5 5 5 7 8 9 10 11 9 5 5 4 0 6 4 8 12 14 14 14 13 13
8 8 6 5 5 5 5 10 10 10 10 10 9 7 5 5 5 6 7 7 7 6 6 9 9 9 9 8 9 11 9 1 4 2 3 3 11 16 16 14 14 14 14
7 8 6 6 5 5 5 5 8 10 11 10 9 10 7 4 5 7 7 9 8 8 9 11 11 8 9 9 10 10 8 3 6 2 1 14 15 12 17 13 14 14 15
9 8 8 7 6 6 6 5 5 5 4 4 4 4 4 5 4 6 8 12 9 11 11 11 11 9 7 4 4 8 2 4 3 4 6 15 9 12 16 15 15 16 17
13 9 8 8 7 7 5 4 3 2 3 3 4 4 5 4 4 2 2 3 4 8 4 5 6 4 4 4 5 4 5 3 3 4 7 15 18 17 23 22 14 16 16
12 12 11 10 9 7 4 3 3 3 3 3 4 6 4 3 4 3 2 5 5 3 5 4 3 5 5 5 6 7 6 4 2 2 6 14 16 18 20 17 14 14 14
14 12 13 10 10 8 5 4 4 5 4 5 4 6 4 4 4 2 4 4 4 3 4 3 3 3 3 5 5 4 5 6 5 2 3 13 17 18 20 15 14 14 14
14 12 13 11 11 7 5 6 4 5 6 4 4 5 7 4 3 3 3 2 1 2 2 2 3 3 3 3 4 2 2 4 3 3 3 4 9 14 16 14 13 13 13
10 9 14 12 10 9 7 5 4 2 4 4 5 6 6 5 4 3 2 3 2 2 4 4 1 0 2 3 4 4 4 5 4 5 4 4 4 9 10 11 12 12 10
11 12 13 12 10 8 8 5 3 3 3 4 4 4 6 7 6 3 3 4 1 2 3 3 1 0 3 3 3 4 4 5 6 5 4 3 2 2 3 4 8 7 8
14 14 15 12 12 9 7 5 5 4 2 3 3 4 7 8 6 4 3 4 2 2 2 2 2 1 2 4 5 4 5 4 5 3 6 6 3 2 1 2 3 5 5
14 16 16 12 12 9 5 5 3 3 4 4 4 5 7 8 7 5 4 5 3 2 1 1 2 2 1 1 4 6 4 3 3 5 5 5 3 3 4 5 4 3 6
15 16 16 14 11 8 3 4 3 4 3 4 4 7 6 5 7 6 5 4 4 4 5 4 2 1 1 2 3 4 4 2 5 5 4 4 6 5 6 5 4 3 4
17 17 15 14 12 9 7 5 3 4 4 5 4 5 7 7 8 7 6 6 6 3 2 4 3 1 1 2 1 1 4 5 4 5 4 5 6 5 5 6 5 5 4
16 16 16 15 14 12 10 4 2 1 2 2 4 3 6 8 10 7 7 6 6 4 4 4 3 4 1 2 0 3 2 3 4 2 4 3 6 5 5 6 6 6 7
19 17 16 14 14 13 11 10 10 6 7 6 5 4 5 8 8 8 8 7 6 4 3 3 3 2 3 2 2 1 2 3 3 5 3 3 4 4 6 5 6 6 6
18 18 17 16 14 14 15 14 11 9 6 4 3 6 6 6 9 11 9 7 6 4 4 6 6 6 4 4 4 1 0 1 1 3 3 6 2 3 3 4 5 5 6
17 17 17 17 16 14 15 14 15 14 9 8 9 5 4 4 6 8 7 7 6 6 6 6 6 6 6 5 4 4 4 2 2 2 1 3 4 6 8 2 4 5 4
Wind_Direction
237 181 127 108 100 102 101 99 96 92 87 84 88 87 86 86 89 91 92 96 100 108 103 103 98 98 105 101 103 102 100 105 116 123 125 127 123 127 133 130 125 124 124
148 162 121 107 105 103 105 103 100 91 85 81 81 84 87 91 91 92 94 99 103 105 104 102 100 101 101 102 103 104 116 130 139 128 132 137 130 125 162 146 130 133 131
129 126 121 114 112 108 104 103 103 100 99 92 92 96 95 92 97 101 95 117 106 109 111 108 106 100 87 80 76 73 86 90 92 111 123 34 137 131 124 143 141 140 139
139 113 123 119 122 112 104 103 101 101 100 105 105 103 102 99 114 105 104 99 109 109 109 111 112 112 98 78 70 68 55 14 357 110 99 197 203 155 150 149 149 147 149
129 123 139 128 124 118 108 107 109 105 108 112 113 108 107 107 101 106 110 111 111 116 122 121 121 123 89 73 55 56 66 311 255 234 216 219 239 177 166 161 160 157 158
134 138 134 132 129 123 120 116 116 117 114 117 117 119 114 117 121 123 127 128 129 129 128 133 136 126 335 13 340 327 345 317 333 324 317 221 198 201 182 170 169 176 168
140 133 132 140 131 128 123 127 129 128 129 128 130 124 128 131 135 136 138 141 139 141 141 145 172 260 297 317 317 310 320 344 309 311 345 212 175 211 197 184 178 167 172
137 132 145 135 137 135 132 138 135 139 138 138 131 129 131 140 145 151 156 154 165 172 176 199 249 273 281 283 284 283 313 328 344 298 356 143 182 211 210 189 190 188 183
136 131 127 138 144 143 144 146 147 146 139 139 138 146 149 160 164 170 174 186 187 199 210 228 240 252 266 274 278 276 274 319 353 328 105 141 192 211 214 203 198 202 192
141 140 142 145 132 135 159 159 152 144 147 153 158 170 180 181 190 206 206 224 216 223 240 246 251 261 268 275 290 294 291 198 168 205 266 76 218 205 225 208 202 207 204
150 149 150 159 156 162 174 171 160 159 165 166 173 179 188 205 225 236 224 230 235 237 248 256 261 273 283 286 293 288 289 201 178 182 270 220 230 218 243 215 213 214 214
162 168 169 171 172 181 186 185 170 187 184 183 181 188 202 224 227 230 243 249 239 239 244 252 259 262 279 275 287 299 270 204 192 214 202 219 216 226 277 243 215 217 220
175 169 178 176 183 190 193 184 182 185 201 200 205 211 221 216 234 228 266 286 258 259 243 260 262 249 256 272 286 277 268 287 184 214 231 221 215 206 219 246 220 221 216
174 181 184 179 185 202 187 176 194 188 189 219 218 219 190 218 226 192 237 243 243 238 250 248 262 272 277 271 254 277 281 286 250 218 227 220 229 219 230 241 234 225 229
180 185 186 176 185 200 171 173 208 207 201 204 196 205 192 210 218 139 234 270 263 215 227 244 254 267 279 288 289 243 255 265 260 231 209 224 225 224 233 235 233 230 232
183 181 183 182 183 176 176 197 213 202 205 189 204 197 209 194 179 186 258 279 330 252 354 213 231 311 312 305 320 358 282 295 279 236 233 243 231 227 237 236 236 236 236
187 178 184 179 181 161 177 186 160 149 152 174 212 220 217 226 194 199 263 293 267 30 270 216 73 193 321 323 353 345 335 328 307 300 274 236 251 259 262 242 240 248 244
174 175 183 185 182 172 164 177 208 183 188 178 189 218 229 234 197 202 233 268 92 223 219 109 223 284 18 348 321 313 313 323 317 316 336 329 273 274 308 266 249 245 243
174 176 179 184 183 180 177 166 202 219 224 254 183 228 215 239 207 189 235 258 167 231 181 131 267 85 25 334 314 308 326 346 329 13 2 359 21 103 143 315 246 241 238
179 181 180 184 185 180 172 160 189 231 246 249 224 232 218 222 203 190 214 247 150 246 174 164 221 51 105 304 323 323 345 356 8 47 15 355 26 353 358 352 315 278 241
180 182 184 180 190 170 152 159 189 206 223 252 228 240 228 215 237 190 194 220 216 177 228 203 193 140 350 36 18 339 341 335 339 16 31 353 356 8 30 15 352 331 309
181 185 186 187 181 184 178 181 172 178 221 225 231 229 229 208 216 212 192 207 198 199 199 206 202 100 3 22 79 75 339 328 344 4 25 11 355 345 5 355 354 346 336
191 187 186 188 182 186 183 159 176 140 302 277 244 229 214 218 210 204 198 206 206 181 191 200 165 137 166 316 19 143 2 264 323 334 343 12 354 356 343 346 334 339 334
194 192 187 181 182 185 172 185 194 192 208 228 223 230 229 206 202 207 206 205 206 192 184 185 160 139 132 224 347 106 179 172 198 320 327 329 325 349 326 321 325 321 339
189 191 190 184 182 181 186 192 193 206 209 210 227 242 241 218 205 211 209 200 203 187 184 173 165 175 168 159 179 212 128 151 169 151 262 316 327 294 269 292 307 325 337
191 189 189 189 194 186 186 194 196 206 208 219 232 231 233 232 221 230 215 206 200 183 180 179 187 170 167 179 186 159 186 189 226 158 171 267 270 312 319 223 312 325 324